Flag for U.S.A. Weather past 2 weeks in Omaha, Nebraska, U.S.A.

Now
54 °F

Clear.


Feels Like: 54 °F
Forecast: 56 / 77 °F
Wind: 3 mph from Southeast

Location: Millard Airport

Current Time: Oct 24, 2014 at 4:37:52 AM

Latest Report: Oct 24, 2014 at 4:15 AM


Visibility: 7 mi

Pressure: 29.96 "Hg

Humidity: 93%

Dew point: 52 °F

Location of OmahaLocation

Historic Weather in Omaha — Graph

°F

Omaha temperature yesterday

Maximum temperature yesterday: 70 °F (at 3:35 PM)
Minimum temperature yesterday: 53 °F (at 11:55 PM)
Average temperature yesterday: 61 °F

Past Weeks' High & Low Weather Summary

 TemperatureHumidityPressure
High77 °F (Oct 16, 3:15 PM)97% (Oct 11, 3:15 AM)30.29 "Hg (Oct 11, 3:15 AM)
Low34 °F (Oct 11, 7:35 AM)27% (Oct 16, 5:15 PM)29.69 "Hg (Oct 12, 4:15 PM)
Average55 °F69%30.01 "Hg
* Reported Oct 9 3:15 AM — Oct 24 3:15 AM, Omaha, Weather by CustomWeather, © 2014

Note: Actual official high and low records may vary slightly from our data, if they occured in-between our weather recording intervals... More about our weather records

Advertising

Omaha weather history for previous 24 hours

 ConditionsComfort  
Time TempWeatherWind HumidityBarometerVisibility
3:15 AM
Oct 24
54 °FClear.No wind92%29.98 "Hg10 mi
2:55 AM54 °FClear.3 mph91%29.98 "Hg10 mi
2:15 AM54 °FClear.5 mph90%29.99 "Hg10 mi
1:55 AM53 °FClear.No wind91%29.99 "Hg10 mi
1:35 AM53 °FClear.No wind88%30.00 "Hg10 mi
1:15 AM54 °FClear.No wind86%30.00 "Hg10 mi
12:55 AM53 °FClear.No wind91%30.00 "Hg10 mi
12:35 AM53 °FClear.No wind89%30.00 "Hg10 mi
12:15 AM52 °FClear.No wind92%30.01 "Hg10 mi
11:55 PM
Oct 23
53 °FClear.No wind90%30.01 "Hg10 mi
11:15 PM55 °FClear.No wind86%30.01 "Hg10 mi
10:55 PM54 °FClear.No wind91%30.01 "Hg10 mi
10:15 PM54 °FClear.No wind93%30.01 "Hg10 mi
9:55 PM54 °FClear.No wind93%30.01 "Hg10 mi
9:35 PM54 °FClear.No wind94%30.02 "Hg10 mi
9:15 PM55 °FClear.No wind93%30.02 "Hg10 mi
8:55 PM55 °FClear.No wind92%30.02 "Hg10 mi
8:35 PM55 °FClear.No wind91%30.02 "Hg10 mi
8:15 PM55 °FClear.No wind91%30.02 "Hg10 mi
7:55 PM56 °FClear.No wind90%30.02 "Hg10 mi
7:35 PM57 °FClear.No wind88%30.02 "Hg10 mi
7:15 PM58 °FSunny.No wind84%30.02 "Hg10 mi
6:55 PM59 °FSunny.No wind82%30.01 "Hg10 mi
6:35 PM61 °FSunny.No wind77%30.01 "Hg10 mi
6:15 PM64 °FSunny.No wind70%30.01 "Hg10 mi
5:55 PM68 °FSunny.No wind57%30.01 "Hg10 mi
5:35 PM69 °FSunny.No wind53%30.01 "Hg10 mi
5:15 PM70 °FSunny.5 mph56%30.01 "Hg10 mi
4:55 PM70 °FSunny.3 mph55%30.01 "Hg10 mi
4:35 PM70 °FSunny.3 mph53%30.01 "Hg10 mi
4:15 PM70 °FSunny.No wind52%30.01 "Hg10 mi
3:35 PM70 °FSunny.No wind49%30.01 "Hg10 mi
3:15 PM69 °FSunny.No wind49%30.02 "Hg10 mi
2:55 PM69 °FSunny.3 mph49%30.02 "Hg10 mi
2:15 PM67 °FSunny.3 mph61%30.03 "Hg10 mi
1:55 PM67 °FSunny.3 mph67%30.04 "Hg10 mi
1:30 PM67 °FSunny.No wind63%30.05 "Hg10 mi
1:15 PM67 °FSunny.No wind64%30.05 "Hg10 mi
12:55 PM66 °FSunny.3 mph68%30.06 "Hg10 mi
12:35 PM64 °FSunny.No wind69%30.06 "Hg10 mi
12:15 PM64 °FSunny.No wind75%30.07 "Hg10 mi
11:55 AM63 °FSunny.No wind81%30.06 "Hg7 mi
11:35 AM61 °FScattered clouds.No wind83%30.07 "Hg7 mi
11:15 AM60 °FLow clouds.No wind86%30.08 "Hg7 mi
10:55 AM58 °FFog.3 mph90%30.08 "Hg5 mi
10:35 AM58 °FFog.3 mph91%30.08 "Hg4 mi
10:15 AM59 °FFog.3 mph90%30.08 "Hg4 mi
9:55 AM59 °FFog.3 mph87%30.07 "Hg4 mi
9:35 AM59 °FFog.3 mph90%30.07 "Hg3 mi
8:55 AM60 °FFog.8 mph92%30.05 "Hg5 mi
8:35 AM58 °FFog.5 mph96%30.04 "Hg2 mi
8:15 AM58 °FFog.No wind96%30.04 "Hg0 mi
7:55 AM59 °FFog.No wind95%30.03 "Hg3 mi
7:35 AM59 °FFog.No wind96%30.03 "Hg3 mi
7:15 AM59 °FFog.No wind96%30.03 "Hg4 mi
6:55 AM59 °FFog.No wind96%30.04 "Hg4 mi
6:35 AM59 °FFog.No wind95%30.04 "Hg2 mi
6:15 AM58 °FFog.No wind96%30.03 "Hg0 mi
5:55 AM60 °FFog.No wind94%30.03 "Hg4 mi
5:35 AM61 °FPartly cloudy.3 mph93%30.03 "Hg7 mi
5:15 AM62 °FOvercast.No wind92%30.03 "Hg10 mi
4:55 AM62 °FOvercast.No wind92%30.03 "Hg10 mi
4:35 AM62 °FOvercast.3 mph92%30.03 "Hg10 mi
4:15 AM62 °FOvercast.3 mph92%30.02 "Hg10 mi
Weather by CustomWeather, © 2014

See weather overviewHow to use our weather pages